Location: *
(46.0770°N, 1.6444°E)
Time: 23:22:56
(UTC+00:00)

Meteor 1-4 Rocket - Pass Details

Date: 16 September 2019
Orbit: 449 x 504 km, 81.2° (Epoch: 14 October)

Event Time Altitude Azimuth Distance (km) Brightness Sun altitude
Rises 20:43:47 0° 339° (NNW) 2,532 7.1 -26.7°
Reaches altitude 10° 20:46:05 10° 327° (NNW) 1,638 6.1 -27.0°
Enters shadow 20:48:42 27° 283° (WNW) 928 4.5 -27.4°
